Home   Weather   Porto Velho   Past weeks

Flag for Brazil Past Weather in Porto Velho, Rondônia, Brazil — Yesterday and Last 2 Weeks

Now
88 °F

Sunny.


Feels Like: 86 °F
Forecast: N/A
Wind: 2 mph from Northwest

Location: Porto Velho Aeroporto

Current Time: Jul 20, 2017 at 4:56:41 pm

Latest Report: Jul 20, 2017 at 4:00 pm


Visibility: 10 mi

Pressure: 29.92 "Hg

Humidity: 31%

Dew Point: 54 °F

Location of Porto VelhoLocation

Past Weather in Porto Velho — Graph

°F

Porto Velho Temperature Yesterday

Maximum temperature yesterday: 82 °F (at 3:00 pm)
Minimum temperature yesterday: 59 °F (at 5:00 am)
Average temperature yesterday: 68 °F

High & Low Weather Summary for the Past Weeks

 TemperatureHumidityPressure
High95 °F (Jul 17, 1:00 pm)94% (Jul 6, 7:00 am)30.18 "Hg (Jul 6, 7:00 am)
Low59 °F (Jul 18, 7:00 am)18% (Jul 12, 2:00 pm)29.80 "Hg (Jul 15, 5:00 pm)
Average78 °F62%29.96 "Hg
* Reported Jul 5 3:00 pm — Jul 20 3:00 pm, Porto Velho. Weather by CustomWeather, © 2017

Note: Actual official high and low records may vary slightly from our data, if they occured in-between our weather recording intervals... More about our weather records

Advertising

Porto Velho Weather History for the Previous 24 Hours

Scroll right to see more
 ConditionsComfort  
Time TempWeatherWind HumidityBarometerVisibility
3:00 pm
Thu, Jul 20
88 °FSunny.3 mph31%29.95 "Hg10 mi
2:00 pm86 °FSunny.6 mph31%29.98 "Hg10 mi
1:00 pm86 °FSunny.3 mph31%30.01 "Hg10 mi
12:00 pm82 °FSunny.7 mph32%30.04 "Hg10 mi
11:00 am81 °FSunny.6 mph37%30.07 "Hg10 mi
10:00 am77 °FSunny.9 mph42%30.07 "Hg10 mi
9:00 am73 °FSunny.9 mph47%30.07 "Hg10 mi
8:00 am66 °FSunny.2 mph73%30.07 "Hg10 mi
7:00 am61 °FClear.No wind94%30.04 "HgN/A
6:00 am61 °FFog.No wind94%30.01 "Hg3 mi
5:00 am61 °FFog.No wind94%30.01 "Hg2 mi
4:00 am61 °FFog.No wind94%30.01 "Hg2 mi
3:00 am61 °FFog.No wind94%30.01 "Hg2 mi
2:00 am61 °FFog.No wind94%30.01 "Hg3 mi
1:00 am63 °FFog.No wind94%30.04 "Hg2 mi
12:00 am63 °FFog.No wind88%30.04 "Hg2 mi
11:32 pm
Wed, Jul 19
63 °FFog.No wind88%30.04 "Hg3 mi
11:00 pm63 °FClear.No wind88%30.04 "Hg10 mi
10:00 pm64 °FClear.No wind83%30.04 "Hg10 mi
9:00 pm64 °FClear.No wind78%30.01 "Hg10 mi
8:00 pm68 °FClear.No wind60%30.01 "Hg10 mi
7:00 pm70 °FClear.2 mph57%29.98 "Hg10 mi
6:00 pm75 °FSunny.5 mph47%29.98 "Hg10 mi
5:00 pm82 °FSunny.2 mph32%29.95 "Hg10 mi
4:00 pm82 °FSunny.6 mph28%29.95 "Hg10 mi
Weather by CustomWeather, © 2017

See weather overviewHow to use our weather pages